Skip Page Navigation
NASA JPL Caltech
NASA Logo - Jet Propulsion Laboratory + View the NASA Portal
+ Center for Near-Earth Object Studies
JPL Home Earth Solar System Stars & Galaxies Technology
JPL Solar System Dynamics
BODIES ORBITS EPHEMERIDES TOOLS PHYSICAL DATA DISCOVERY FAQ SITE MAP
IMPORTANT: The SSD Announcement email list is now available. Major changes are coming in the near future, including possible hostname and/or URL changes. To be notified of such changes, subscribe to this email list.

Please visit this page for more details.


JPL Small-Body Database Browser
Search: [ help ]  
2090 Mizuho (1978 EA)
Classification: Main-belt Asteroid          SPK-ID: 2002090
Ephemeris | Orbit Diagram | Orbital Elements | Mission Design | Physical Parameters | Discovery Circumstances | Close-Approach Data ]

[ show orbit diagram ]
Orbital Elements at Epoch 2458600.5 (2019-Apr-27.0) TDB
Reference: JPL 36 (heliocentric ecliptic J2000)
 Element Value Uncertainty (1-sigma)   Units 
e .1335826033836742 4.7164e-08  
a 3.074204655209926 1.7628e-08 au
q 2.663544394032773 1.4296e-07 au
i 11.8110546585378 5.4188e-06 deg
node 339.835177195856 2.1508e-05 deg
peri 341.3047828944474 2.9085e-05 deg
M 87.12111680291211 2.1533e-05 deg
tp 2458124.048691614711
(2018-Jan-05.54869161)
0.00011689 TDB
period 1968.781821366307
5.39
1.6934e-05
4.636e-08
d
yr
n .1828541873421836 1.5728e-09 deg/d
Q 3.484864916387078 1.9983e-08 au
  Orbit Determination Parameters
   # obs. used (total)      2326  
   data-arc span      25106 days (68.74 yr)  
   first obs. used      1951-03-13  
   last obs. used      2019-12-07  
   planetary ephem.      DE431  
   SB-pert. ephem.      SB431-N16  
   condition code      0  
   norm. resid. RMS      .42983  
   source      ORB  
   producer      Otto Matic  
   solution date      2019-Dec-13 21:10:13  

Additional Information
 Earth MOID = 1.65357 au 
 Jupiter MOID = 1.87621 au 
 T_jup = 3.184 
[ show covariance matrix ]

Ephemeris | Orbit Diagram | Orbital Elements | Mission Design | Physical Parameters | Discovery Circumstances | Close-Approach Data ]

Physical Parameter Table
Parameter Symbol Value Units Sigma Reference Notes
absolute magnitude H 10.8   n/a MPO502173  
diameter diameter 17.991 km 0.141 urn:nasa:pds:neowise_diameters_albedos::2.0[mainbelt] (http://adsabs.harvard.edu/abs/2014ApJ...791..121M)  
rotation period rot_per 5.47 h n/a LCDB (Rev. 2019-January); Warner et al., 2009 Result based on less than full coverage, so that the period may be wrong by 30 percent or so.
Published Reference List:
[Brinsfield, J.W. (2010) Minor Planet Bull. 37, 146-147.]
[Durech, J.; Hanus, J. (2018) Astron. Astrophys. 620, A91.]
geometric albedo albedo 0.219   0.029 urn:nasa:pds:neowise_diameters_albedos::2.0[mainbelt] (http://adsabs.harvard.edu/abs/2014ApJ...791..121M)  
B-V BV 0.871   0.020 EAR-A-5-DDR-UBV-MEAN-VALUES-V1.2 #obs=1; phase=1.78 deg.
U-B UB 0.499   0.032 EAR-A-5-DDR-UBV-MEAN-VALUES-V1.2 #obs=1; phase=1.78 deg.
Tholen spectral type spec_T S   n/a EAR-A-5-DDR-TAXONOMY-V4.0 used 7 color indices

2090 Mizuho (1978 EA)          Discovered 1978-Mar-12 by Urata, T. at Yakiimo Station
Reference: DISCOVERY.DBLast Updated: 2003-08-29

[ show close-approach data ]
Alternate Designations
 1978 EA = 1937 RE = 1942 PG = 1951 EH = 1952 HA4 = 1953 RT = 1953 TP = 1959 VD = 1964 TE = 1970 WV = 1978 EJ 
Ephemeris | Orbit Diagram | Orbital Elements | Mission Design | Physical Parameters | Discovery Circumstances | Close-Approach Data ]
ABOUT SSD CREDITS/AWARDS PRIVACY/COPYRIGHT GLOSSARY LINKS
FirstGov 2020-Jan-21 05:59 UT
(server date/time)  
NASA Home Page
Site Manager:   Ryan S. Park
Webmaster  Alan B. Chamberlin